Location: Unspecified
(49.9217°N, 0.0000°E)
Time: 02:39:08
(UTC+00:00)

Tiangong 2 - Visible Passes

Search period start: 23 May 2019 00:00
Search period end: 02 June 2019 00:00
Orbit: 379 x 387 km, 42.8° (Epoch: 22 May)

Date Brightness Start Highest point End Pass type
(mag) Time Alt. Az. Time Alt. Az. Time Alt. Az.
23 May 2.4 21:10:32 10° SW 21:13:02 22° S 21:14:11 18° SSE visible
24 May 2.7 21:46:58 10° WSW 21:49:05 19° SSW 21:49:05 19° SSW visible
25 May 2.5 20:47:00 10° WSW 20:49:29 22° S 20:51:42 12° SE visible
26 May 2.9 21:23:40 10° WSW 21:25:44 16° SSW 21:26:27 15° S visible
28 May 3.4 21:00:36 10° SW 21:02:05 13° SSW 21:03:34 10° S visible
